Location: Oberkirch
(48.5323°N, 8.0787°E)
Time: 16:48:39
(UTC+00:00)

USA 238 - Pass Details

Date: 08 November 2025
Orbit: 887 x 1324 km, 63.4° (Epoch: 24 November)

Event Time Altitude Azimuth Distance (km) Brightness Sun altitude
Exits shadow 03:33:09 39° 339° (NNW) 1,513 4.3 -28.6°
Drops below altitude 10° 03:39:12 10° 37° (NE) 2,975 6.5 -27.6°
Sets 03:42:15 0° 46° (NE) 4,008 7.4 -27.1°
